CAPE
1241 1308 1895 1632 1844 1702 1756 1823 2120 2146 2125 1867 1208 1547 1625 1302 1383 1163 1371 1359 1385 1278 1384 1287 733 783 666 815 436 585 400 389 355 753 585 362 564 540 223 612 567 446 416
1316 1444 1833 1672 1763 1741 1696 1938 1816 2010 2183 2095 1863 1815 1641 1490 1428 1606 1645 1673 1515 1444 1535 1303 1240 1258 991 264 630 498 831 559 1012 730 338 197 517 675 388 0 0 32 107
1428 1606 1803 1799 1775 1867 1946 2109 2099 1948 1778 1785 1770 1752 1718 1729 1907 1640 1591 1483 1632 1311 1527 1452 1262 1255 789 254 349 307 220 888 901 951 865 21 19 254 0 397 0 0 505
1594 1717 1951 1867 1824 1815 1979 2020 1923 2237 2183 2191 2159 2066 2086 1867 1661 1806 1509 1759 1581 1588 1732 1463 1159 1016 522 287 352 684 552 817 729 851 46 2 0 0 0 85 582 511 27
1793 1800 2132 1927 1951 1904 1906 1937 1888 1972 2107 2094 2053 2068 2042 2060 1762 1703 1248 1401 1494 1640 1523 1581 1295 664 810 707 755 1080 976 1052 968 481 395 97 2 73 822 760 52 812 790
1760 1755 2155 2171 2404 1999 2052 2010 2012 2017 1975 1873 2000 1762 1571 1561 1873 1567 1602 1232 1275 1554 1366 1370 1020 864 1032 897 1090 997 998 757 459 337 481 350 38 4 668 581 331 28 734
1767 1819 2129 2301 2289 2288 2145 2061 2089 1921 1827 1949 1937 1969 2025 1869 1601 1353 1322 1394 1322 1474 1402 1463 901 1033 836 792 792 505 389 542 243 219 249 165 16 48 865 58 497 678 120
1667 1835 2177 2262 2345 2392 2209 1777 1791 1855 1818 1610 2144 1965 1938 2123 2061 1770 1803 1493 1166 1195 1310 925 883 1476 864 595 431 355 177 269 484 591 224 261 89 182 548 846 0 432 847
1767 1979 2246 2291 2396 2533 2395 2152 1927 2010 2097 2143 2167 2124 1850 2067 1868 1605 1786 1934 1681 1177 1092 1329 1106 1255 918 564 385 334 494 492 699 660 525 172 259 461 598 1152 222 156 103
1831 1928 2053 2268 2213 2209 2200 2374 2248 2079 2169 2237 2219 2147 2146 1987 1714 1678 1846 1690 1792 1800 1222 1073 1190 1435 1144 867 537 350 359 460 464 525 625 339 149 586 624 1129 367 490 581
1779 1861 1982 2026 2201 2359 2313 2196 2209 2164 2056 1773 2021 1882 1707 1450 1432 1516 1391 1251 1589 1377 1349 1125 708 1022 1453 1422 865 529 320 397 423 462 554 316 109 402 824 554 496 266 51
1191 1578 1773 1870 1881 2137 1840 2239 2274 2091 1869 1686 1571 1726 1584 1481 1671 1386 1540 1271 1349 1248 1211 1371 1191 625 948 617 562 793 230 282 283 495 564 277 173 459 795 728 510 560 170
1100 1243 1599 1777 1867 1759 1696 2056 1936 1840 1287 1137 1289 1525 1586 1630 1716 1572 1468 1399 1257 1446 879 855 844 754 897 838 530 349 455 377 174 305 504 326 361 508 731 792 626 454 701
970 945 1205 1547 1684 1731 1792 1607 1676 1310 347 58 151 703 758 1338 1517 1567 1277 1543 1612 1436 1473 1207 846 888 926 909 805 853 422 289 188 255 244 241 485 468 414 667 622 402 776
949 915 973 1267 1255 1413 1436 1509 1412 1036 488 122 71 233 431 853 961 1270 874 904 1094 954 1444 1225 993 752 544 408 369 361 401 345 132 236 145 121 538 449 375 410 776 845 839
1255 1163 1153 1091 1207 1244 1204 1248 1246 1441 1098 636 105 167 142 296 258 458 766 616 876 1153 932 1088 465 555 643 323 73 43 127 342 421 390 139 105 196 494 494 369 522 953 1097
1669 1656 1609 1279 1296 1290 1359 1485 1417 1107 940 831 473 91 44 90 115 127 178 318 602 722 1027 1031 774 445 265 265 89 37 49 85 327 631 848 843 278 193 349 484 381 558 586
1884 1721 1897 1678 1682 1688 1684 1762 1589 1416 1079 806 398 176 35 54 91 96 115 171 535 687 690 691 573 213 188 199 98 87 87 80 134 534 758 863 553 473 503 521 449 463 463
1769 1739 1723 1842 2012 1904 1876 1743 1558 1077 676 448 331 307 156 148 43 54 159 225 340 317 275 252 187 126 131 121 120 136 91 8 135 533 919 1061 912 735 730 747 522 391 325
1569 1767 1796 1798 2055 1944 1749 1483 1166 637 356 346 396 371 310 237 221 186 136 210 259 217 215 194 163 192 148 112 178 308 459 307 450 676 343 373 713 1053 1062 1090 962 686 450
1332 1519 1526 1639 2025 1656 1366 1270 897 603 334 268 226 280 333 344 311 177 154 116 70 24 62 99 191 171 218 261 201 220 170 274 214 329 523 646 679 838 1055 1237 1414 707 716
1303 1500 1654 1329 1489 1354 1247 1328 1075 363 286 275 260 237 234 232 213 295 332 312 258 162 164 331 246 334 251 200 125 145 42 141 194 260 336 383 563 658 771 921 1069 1184 913
1622 924 497 218 420 679 928 1086 649 167 67 92 103 186 241 321 290 197 277 278 210 197 133 629 471 384 179 41 149 223 65 31 122 24 35 74 153 148 381 798 1013 1095 1052
923 678 216 6 0 159 170 344 942 635 224 108 176 578 763 581 386 444 508 462 463 666 526 444 483 416 355 250 203 177 30 61 23 33 18 1 52 50 77 130 241 279 442
1011 645 458 10 0 0 2 102 638 940 404 150 492 995 1283 1159 1094 964 861 472 532 366 319 335 335 250 270 217 215 171 164 212 189 132 51 40 3 1 1 148 115 160 184
871 359 235 0 0 0 10 133 514 981 672 347 504 988 1069 972 938 741 476 306 224 171 147 160 261 267 218 193 207 202 164 127 67 109 127 39 20 1 1 0 32 91 123
CIN
-2 -3 0 -18 -8 -15 -18 -15 -6 -12 -9 -13 -34 -17 -9 -9 -2 -3 0 0 0 0 0 -1 -8 -6 -7 -3 -4 0 -7 -4 -6 0 0 0 -1 -1 -2 0 -1 0 -1
-22 -1 -1 -16 -17 -16 -20 -10 -16 -12 -5 -4 -9 -5 -3 -3 -2 0 0 0 0 0 0 -1 -1 0 0 -15 0 -1 0 0 0 0 -5 -7 0 0 -3 0 0 -8 -9
-16 -2 0 -3 -11 -10 -8 -2 -1 -5 -10 -11 -6 -2 0 0 0 0 0 -1 0 0 0 0 0 0 -1 -21 -13 -5 -8 0 0 0 -1 -5 -1 -7 0 -3 0 0 0
-10 -1 0 -2 -2 -8 -3 -2 -2 0 0 0 0 0 0 -1 -3 0 0 0 0 0 0 0 0 0 -7 -13 -12 0 0 0 0 -1 -12 -1 0 0 0 -34 0 0 -17
-5 -3 0 -3 -1 -1 -3 -1 -1 -1 0 0 0 0 0 0 -2 0 -10 -3 -3 0 0 0 0 -3 0 -1 0 0 0 0 0 -2 -1 -6 0 -3 0 -1 -69 0 0
-19 -13 -1 -2 0 -1 0 0 0 -1 -3 -2 0 -1 -10 -12 0 -5 -2 -7 -4 0 0 0 0 -1 0 0 0 0 0 0 -6 -3 0 -1 -10 -22 0 0 -10 -34 0
-28 -16 0 -1 -1 0 0 0 0 -4 -8 -3 -1 0 0 0 -3 -10 -7 -8 -4 -1 0 0 0 0 -5 -9 -3 -7 -11 -2 -5 -8 -5 0 -15 -33 0 -39 -6 -1 -64
-36 -11 0 -1 -1 -1 -1 -6 -8 -9 -11 -11 0 0 0 0 0 -2 0 -5 -11 -4 -1 -3 -1 0 -1 -20 -27 -22 -33 -28 -6 -1 -10 -4 -20 -17 0 0 0 -13 0
-24 -10 -1 0 0 0 0 -3 -7 -2 0 0 0 0 -3 0 -1 -3 -1 0 0 -5 -5 0 -1 0 0 -11 -22 -31 -24 -23 -2 -3 -2 -14 -30 -9 0 0 -26 -35 -66
-19 -9 -7 -1 0 0 0 0 0 0 0 0 0 0 0 0 0 -1 0 -1 0 0 -5 -3 -1 0 0 -2 -12 -19 -21 -23 0 -3 -2 -4 -42 -7 0 0 -12 -10 0
-37 -27 -14 -11 -7 0 0 0 -1 0 0 -1 0 0 0 -1 0 0 -1 -8 0 0 -2 -5 -7 -4 0 0 -6 -16 -24 -3 0 -5 -4 -33 -57 -24 0 -1 0 -12 -64
-112 -71 -39 -21 -16 -2 -1 0 0 0 0 0 0 0 -1 0 0 0 0 -4 0 0 0 0 -3 -7 -3 0 -1 -3 -9 -12 -6 -7 -10 -55 -61 -32 -5 -2 -9 -2 -31
-110 -104 -89 -49 -30 -20 -11 0 -1 -10 -44 -16 -1 0 0 0 0 0 0 0 0 -1 -1 -2 -1 -1 0 0 -1 -4 -4 -14 -17 -12 -5 -49 -45 -35 -10 -4 -6 -9 0
-138 -128 -105 -90 -56 -34 -18 -19 -14 -27 -61 -110 -60 -2 -3 -1 0 0 0 0 0 -1 0 0 0 -1 -2 -3 -1 0 -9 -7 -12 -20 -26 -53 -42 -41 -32 -15 -15 -20 0
-137 -131 -126 -121 -110 -71 -57 -40 -30 -36 -62 -107 -68 -55 -32 -6 -2 0 -17 -10 -8 -8 0 0 -5 -15 -25 -27 -26 -25 -11 -14 -30 -20 -30 -59 -34 -40 -35 -25 -11 -10 -2
-125 -119 -110 -126 -116 -102 -84 -72 -47 -20 -11 -31 -73 -40 -42 -45 -37 -35 -10 -20 -12 -7 -11 -4 -30 -29 -19 -38 -83 -100 -67 -18 -17 -13 -22 -31 -54 -39 -38 -36 -25 -6 -1
-105 -105 -91 -122 -118 -106 -79 -55 -51 -55 -42 -21 -22 -25 -34 -27 -35 -57 -65 -35 -21 -21 -11 -6 -14 -37 -59 -59 -87 -105 -85 -67 -21 -17 -11 -9 -22 -50 -38 -36 -44 -26 -14
-115 -110 -97 -97 -97 -81 -71 -48 -50 -38 -30 -22 -28 -14 -23 -16 -25 -46 -62 -37 -19 -20 -15 -11 -20 -53 -63 -62 -77 -66 -64 -74 -60 -25 -15 -6 -13 -14 -25 -40 -34 -29 -28
-134 -107 -98 -98 -83 -75 -66 -67 -62 -69 -86 -72 -61 -10 -2 -4 -21 -42 -36 -21 -27 -32 -41 -40 -56 -81 -76 -82 -66 -44 -59 -67 -64 -18 -14 -12 -13 -15 -9 -12 -26 -32 -31
-160 -116 -97 -99 -79 -77 -82 -96 -95 -120 -134 -112 -66 -19 -4 0 -4 -15 -37 -26 -33 -32 -30 -46 -54 -39 -57 -58 -23 -3 -3 -2 -19 -16 -47 -12 -5 -11 -11 -18 -12 -12 -33
-169 -132 -114 -104 -86 -81 -107 -85 -116 -108 -155 -120 -162 -98 -16 0 0 -32 -31 -36 -53 -78 -65 -53 -26 -26 -20 -16 -17 -10 -21 -24 -38 -23 -18 -8 -9 -13 -9 -9 -12 -14 -19
-149 -137 -109 -106 -105 -33 -75 -83 -90 -174 -155 -154 -119 -143 -99 -53 -12 -12 -25 -16 -14 -27 -28 -7 -11 -1 -10 -17 -24 -7 -23 -15 -21 -36 -30 -25 -10 -14 -17 -11 -5 -15 -18
-196 -279 -261 -236 -155 -87 -89 -57 -103 -228 -264 -211 -189 -155 -119 -58 -53 -56 -25 -24 -37 -28 -26 0 -1 0 -13 -55 -26 -15 -6 -13 -25 -87 -86 -76 -49 -68 -41 -12 -2 -3 -10
-379 -389 -445 -73 0 -137 -202 -163 -53 -60 -105 -157 -132 -69 -49 -42 -41 -26 -16 -15 -15 0 -3 -2 0 0 -3 -22 -4 -10 -24 -18 -3 -14 -16 0 -46 -46 -66 -62 -37 -28 -15
-377 -425 -365 -223 0 0 -50 -271 -116 -51 -114 -160 -83 -28 -9 -6 0 0 -1 -9 -8 -14 -3 0 0 -1 -4 0 -2 -5 -10 -18 -32 0 -1 -11 0 0 -50 -12 -25 -10 -12
-400 -470 -459 0 0 0 -464 -330 -135 -61 -67 -107 -65 -15 -13 -9 -9 -7 -14 -21 -16 -13 -16 -7 0 0 0 0 -1 -9 -3 0 -8 0 0 -2 0 0 0 0 -41 -2 -1
Wind_Speed
21 20 20 19 19 18 15 15 17 19 20 22 23 24 23 22 21 18 17 16 10 8 7 6 11 12 11 14 6 4 4 13 16 19 17 18 13 28 20 16 24 29 29
22 20 20 19 19 18 16 14 16 17 20 21 22 23 23 22 22 10 13 15 5 7 7 6 10 11 9 5 5 8 18 26 23 16 15 16 16 12 22 24 20 20 25
23 21 21 19 19 18 18 16 15 16 18 20 21 22 23 23 21 15 9 7 10 11 8 9 9 12 7 5 6 19 10 5 4 23 21 18 25 26 26 26 26 27 23
23 21 21 20 19 19 18 17 17 18 19 21 20 23 24 22 22 22 16 10 11 12 6 7 8 9 7 6 21 27 26 23 21 22 21 23 25 26 25 24 23 25 24
22 21 20 20 20 20 19 19 19 21 22 21 22 21 21 20 20 21 19 14 17 20 22 17 7 11 5 5 9 26 27 18 18 20 22 20 22 25 25 25 23 20 23
22 21 20 20 20 20 19 19 20 21 22 23 23 22 20 19 20 20 20 21 19 22 22 24 7 13 8 5 4 27 26 22 21 18 19 20 20 25 25 25 24 24 21
22 20 19 19 19 19 19 18 19 19 20 20 22 20 20 20 19 19 19 19 21 22 23 22 21 17 17 10 25 25 24 24 22 19 20 19 20 24 24 24 23 23 23
20 19 19 18 17 16 18 18 16 17 16 19 18 17 17 18 19 19 20 21 20 21 22 23 23 20 22 18 21 25 24 24 21 22 22 22 22 23 23 23 22 22 22
19 19 18 18 16 14 14 16 15 15 15 16 19 19 18 17 21 19 19 21 21 21 20 22 23 24 25 25 25 23 24 23 18 20 23 22 21 23 23 22 21 21 21
18 17 17 18 19 18 16 15 14 13 14 14 18 19 22 23 22 20 11 14 22 22 22 21 24 24 22 22 23 24 23 22 21 21 23 22 20 21 21 21 20 20 19
18 17 16 17 18 18 17 14 12 9 9 14 20 24 22 23 23 20 15 9 14 23 23 23 18 17 17 20 22 23 23 21 20 21 23 19 20 19 19 18 18 18 17
18 18 17 17 17 18 17 16 13 9 8 12 15 25 26 22 24 24 23 24 23 23 23 22 17 13 7 14 17 22 24 23 22 19 21 16 18 17 16 15 15 16 15
18 18 18 18 18 17 16 15 14 11 7 17 22 5 3 19 21 26 25 25 24 20 22 18 19 18 16 14 15 17 22 21 22 19 16 4 15 16 15 13 13 13 12
17 18 18 17 17 16 15 14 13 10 11 16 29 27 29 27 22 28 27 27 24 25 24 22 19 19 16 15 16 17 17 22 20 15 13 4 8 13 13 10 9 9 10
16 16 17 17 16 15 14 13 12 10 9 11 6 16 24 23 30 31 31 29 28 25 12 19 17 18 17 16 20 20 18 15 20 19 13 9 10 2 9 8 6 6 6
15 16 16 16 15 14 13 12 11 9 7 6 6 13 25 23 32 31 31 30 13 6 14 7 8 18 22 20 20 21 20 18 17 17 16 12 9 9 2 1 1 2 2
14 14 14 14 14 13 12 11 10 8 6 6 9 7 23 21 36 34 31 29 19 11 10 14 13 14 22 25 22 20 20 20 16 12 13 9 6 6 3 4 4 3 2
13 13 12 12 12 13 11 10 8 7 6 5 7 11 21 20 20 36 33 31 14 10 11 12 10 16 15 25 26 23 25 24 11 8 8 6 4 5 3 6 7 7 5
11 11 11 10 10 10 11 10 9 8 7 8 9 10 17 19 19 8 9 20 17 15 17 17 18 17 22 19 21 21 28 18 7 7 4 2 2 4 8 9 5 8 6
8 8 8 8 7 8 10 10 11 10 10 10 12 12 15 19 17 25 26 7 11 16 19 20 20 18 25 19 18 16 16 12 9 14 15 14 8 5 9 12 16 11 8
6 6 5 5 8 8 9 9 9 10 10 10 12 14 15 19 20 3 2 5 11 14 20 23 24 25 19 13 15 14 14 14 16 15 15 15 15 15 16 16 18 14 10
4 8 13 17 15 18 21 7 9 10 10 11 11 12 14 14 19 12 2 6 13 20 23 25 24 18 14 8 15 17 16 14 15 15 19 20 19 18 16 15 15 17 17
6 10 14 18 17 19 14 6 8 12 11 9 9 10 11 12 12 9 8 17 20 23 23 16 15 12 15 10 7 19 16 16 13 16 17 19 20 20 19 16 15 15 14
7 11 11 14 9 9 13 7 5 3 6 6 8 8 9 8 9 8 7 10 16 16 18 13 13 15 13 17 16 5 14 16 14 12 15 16 17 19 19 17 15 14 13
8 5 9 7 20 5 9 8 4 4 4 7 7 7 9 8 8 7 8 10 13 15 16 15 11 13 15 13 6 14 11 8 10 9 11 12 15 18 18 16 14 14 13
5 1 7 13 22 15 5 6 5 4 4 7 5 5 7 9 9 9 11 12 15 18 17 15 11 12 16 13 10 7 5 8 5 5 9 12 12 15 16 16 15 14 13
Wind_Direction
108 103 102 94 90 79 65 61 68 77 84 94 101 104 100 99 95 81 89 196 244 349 276 319 29 32 51 201 269 303 324 191 179 168 169 165 178 113 161 170 145 124 121
108 103 105 96 94 86 74 64 70 73 85 92 101 107 106 106 108 11 40 56 322 325 314 335 28 39 30 283 277 232 74 119 157 179 179 173 173 40 74 92 164 161 144
108 103 106 99 95 92 87 77 72 72 83 92 97 107 117 118 105 61 9 292 249 242 6 18 25 48 12 316 14 78 209 235 254 154 164 169 139 110 99 101 96 120 151
111 107 107 104 101 97 95 90 85 89 93 98 93 104 123 119 120 133 208 245 237 227 338 5 14 23 12 31 88 143 147 161 169 164 159 149 138 127 101 100 87 100 93
112 109 109 108 106 105 103 103 103 110 117 113 110 109 117 104 106 113 140 228 200 173 157 110 2 42 352 265 52 153 125 187 183 170 162 168 156 134 126 115 103 78 105
117 114 112 112 109 115 112 113 115 124 128 143 140 130 119 106 107 102 102 120 187 165 159 141 358 59 38 26 350 148 137 171 174 187 179 175 173 138 139 134 124 113 91
118 117 116 117 112 113 119 116 122 121 125 132 145 134 128 132 130 126 113 108 144 166 147 134 120 88 90 66 145 159 136 151 170 187 184 185 177 154 143 132 133 129 119
111 114 118 120 113 107 122 121 115 120 118 135 132 125 121 134 148 141 148 158 145 146 175 153 141 122 120 102 117 143 143 171 192 185 171 162 166 160 159 134 136 136 125
109 113 117 122 117 106 108 123 118 121 117 129 153 156 147 147 187 166 152 172 174 168 211 182 163 167 169 176 156 148 152 169 217 199 162 160 137 160 164 145 141 139 136
110 110 115 122 134 131 121 123 120 122 129 128 159 159 185 213 219 249 312 271 202 186 205 212 180 190 213 216 208 201 196 200 205 202 176 166 134 144 157 146 148 140 132
117 116 114 124 128 130 130 118 115 102 110 148 181 220 249 231 229 253 279 319 230 210 205 214 248 245 252 238 229 222 222 226 226 222 187 145 144 145 148 146 147 140 139
123 125 122 127 130 131 129 128 113 85 7 325 306 239 229 256 244 231 230 215 222 224 222 229 265 278 315 272 264 241 229 235 235 248 239 135 145 144 141 137 139 144 139
125 128 133 130 131 133 129 126 124 93 37 306 276 341 311 274 265 231 218 204 186 159 236 249 251 258 271 285 284 275 257 259 255 269 280 52 145 152 150 140 138 140 137
129 134 140 134 134 129 123 127 127 108 86 329 223 263 247 252 265 210 210 207 187 199 215 242 257 260 277 289 285 285 286 265 273 295 305 6 133 158 154 141 132 134 137
128 134 141 139 133 128 127 124 127 126 116 129 124 290 264 270 244 229 224 217 205 194 134 259 270 268 278 293 277 279 286 295 282 286 305 312 314 1 156 152 143 137 139
131 138 138 145 138 128 131 133 139 126 135 145 142 178 243 266 241 236 232 229 284 312 282 325 322 277 265 281 283 283 286 290 294 295 298 307 299 313 312 191 331 166 165
137 133 133 137 141 133 135 139 141 132 128 171 182 166 197 184 236 221 239 240 270 287 298 288 298 302 275 265 283 287 291 289 297 301 303 312 312 178 177 177 185 190 200
138 138 129 127 135 142 136 133 126 128 110 125 170 175 196 181 177 220 216 224 286 289 294 297 307 298 310 276 273 293 286 286 298 299 306 313 301 308 310 193 190 192 200
137 137 138 128 122 130 133 111 98 93 103 101 113 146 167 159 161 206 168 267 278 282 283 288 290 298 292 304 306 306 280 294 281 295 295 202 221 299 317 319 299 202 204
145 135 133 119 104 92 104 95 71 69 77 92 97 124 163 153 155 176 190 289 279 278 277 284 289 298 286 303 311 317 321 314 296 291 299 306 313 305 306 312 311 307 213
114 100 86 79 129 119 90 91 85 66 66 82 86 95 116 155 153 95 336 299 287 284 281 280 282 280 297 315 312 320 327 310 292 296 304 308 311 312 309 307 306 308 310
71 32 22 358 348 309 240 106 60 62 67 66 78 84 100 113 160 134 34 305 291 282 278 274 278 296 306 327 310 308 311 306 304 306 301 301 307 312 312 311 311 306 306
29 35 12 13 354 329 198 118 51 32 41 54 67 72 96 109 107 116 125 284 279 272 277 295 300 309 307 321 327 294 311 309 316 310 307 307 310 312 313 313 312 313 315
89 75 48 347 69 159 192 176 164 114 63 71 40 54 46 62 105 80 357 319 292 292 290 309 312 305 309 299 303 319 312 318 319 327 318 317 322 318 321 322 323 322 323
146 101 82 109 24 163 198 197 162 142 108 58 46 54 24 11 352 20 7 333 310 307 304 307 325 313 304 310 327 312 318 324 323 332 332 329 332 326 323 329 334 336 336
146 115 29 38 19 320 97 130 140 145 119 41 73 71 13 350 339 338 323 332 316 302 305 311 328 324 302 316 327 339 347 338 337 333 330 336 339 337 335 334 333 337 344